Location: Jackson
(42.2460°N, 84.4010°W)
Time: 14:12:37
(UTC-05:00)

Courier 1B Rocket - All Passes

Search period start: 08 February 2026 00:00
Search period end: 18 February 2026 00:00
Orbit: 920 x 1201 km, 28.2° (Epoch: 8 February)

Date Brightness Start Highest point End Pass type
(mag) Time Alt. Az. Time Alt. Az. Time Alt. Az.
8 Feb - 01:34:05 10° SW 01:40:07 27° S 01:46:24 10° ESE night (unlit)
8 Feb - 03:27:11 10° WSW 03:32:53 23° SSW 03:38:42 10° SE visible
8 Feb - 05:23:12 10° SW 05:25:26 11° SSW 05:27:41 10° S visible
8 Feb - 22:42:30 10° SSW 22:46:29 16° SSE 22:50:36 10° ESE night (unlit)
9 Feb - 00:33:14 10° SW 00:38:59 26° S 00:45:00 10° ESE night (unlit)
9 Feb - 02:25:50 10° WSW 02:31:44 25° S 02:37:49 10° SE night (unlit)
9 Feb - 04:20:13 10° SW 04:24:23 15° SSW 04:28:34 10° S visible
9 Feb - 21:43:31 10° S 21:45:34 11° SSE 21:47:40 10° SE night (unlit)
9 Feb - 23:32:37 10° SW 23:37:55 23° SSE 23:43:28 10° ESE night (unlit)
10 Feb - 01:24:43 10° WSW 01:30:35 27° S 01:36:43 10° SE night (unlit)
10 Feb - 03:18:16 10° WSW 03:23:17 19° SSW 03:28:24 10° SSE visible
10 Feb - 22:32:17 10° SSW 22:36:54 19° SSE 22:41:44 10° ESE night (unlit)
11 Feb - 00:23:46 10° SW 00:29:27 26° S 00:35:28 10° SE night (unlit)
11 Feb - 02:16:45 10° WSW 02:22:10 22° SSW 02:27:47 10° SE night (unlit)
11 Feb - 04:12:52 10° SW 04:14:43 11° SSW 04:16:34 10° SSW visible
11 Feb - 21:32:24 10° SSW 21:35:58 15° SSE 21:39:39 10° SE visible
11 Feb - 23:23:00 10° SW 23:28:23 25° S 23:34:04 10° ESE night (unlit)
12 Feb - 01:15:30 10° WSW 01:21:04 24° S 01:26:52 10° SE night (unlit)
12 Feb - 03:09:50 10° SW 03:13:40 15° SSW 03:17:34 10° S night (unlit)
12 Feb - 20:33:48 10° SSE 20:35:06 11° SSE 20:36:25 10° SE visible
12 Feb - 22:22:26 10° SW 22:27:23 22° SSE 22:32:33 10° ESE night (unlit)
13 Feb - 00:14:27 10° SW 00:19:58 25° S 00:25:47 10° SE night (unlit)
13 Feb - 02:07:57 10° WSW 02:12:36 18° SSW 02:17:25 10° SSE night (unlit)
13 Feb - 21:22:10 10° SSW 21:26:26 18° SSE 21:30:51 10° ESE visible
13 Feb - 23:13:34 10° SW 23:18:54 25° S 23:24:32 10° SE night (unlit)
14 Feb - 01:06:30 10° WSW 01:11:32 21° SSW 01:16:48 10° SSE night (unlit)
14 Feb - 03:03:21 10° SSW 03:04:03 10° SSW 03:04:44 10° SSW night (unlit)
14 Feb - 20:22:21 10° S 20:25:32 14° SSE 20:28:49 10° SE visible
14 Feb - 22:12:51 10° SW 22:17:54 23° S 22:23:12 10° ESE visible
15 Feb - 00:05:18 10° WSW 00:10:29 23° S 00:15:55 10° SE night (unlit)
15 Feb - 01:59:42 10° SW 02:03:02 14° SSW 02:06:26 10° S night (unlit)
15 Feb - 21:12:19 10° SW 21:16:56 21° SSE 21:21:45 10° ESE visible
15 Feb - 23:04:18 10° SW 23:09:26 24° S 23:14:52 10° SE night (unlit)
16 Feb - 00:57:48 10° SW 01:02:00 17° SSW 01:06:22 10° SSE night (unlit)
16 Feb - 20:12:03 10° SSW 20:16:02 17° SSE 20:20:07 10° SE visible
16 Feb - 22:03:26 10° SW 22:08:27 24° S 22:13:42 10° SE visible
16 Feb - 23:56:22 10° WSW 00:01:00 20° SSW 00:05:50 10° SSE night (unlit)
17 Feb - 19:12:13 10° S 19:15:10 14° SSE 19:18:09 10° SE visible
17 Feb - 21:02:44 10° SW 21:07:30 22° S 21:12:26 10° SE visible
17 Feb - 22:55:11 10° SW 23:00:00 22° S 23:05:02 10° SE night (unlit)
